Budapest Ferihegy, Hungary

6:42 PM CEST on April 29, 2017 (GMT +0200)
Ferihegy

Weather History for LHBP - March, 2013

Change the Weather History Date:

Monday, March 25, 2013

  Actual Average Record
Temperature  
Mean Temperature 32 °F -  
Max Temperature 35 °F 57 °F 69 °F (2012)
Min Temperature 28 °F 38 °F 21 °F (2016)
Degree Days  
Heating Degree Days 34    
Moisture  
Dew Point 15 °F    
Average Humidity 59    
Maximum Humidity 100    
Minimum Humidity 34    
Precipitation  
Precipitation 0.00 in - - ()
Sea Level Pressure  
Sea Level Pressure 29.90 in    
Wind  
Wind Speed 10 mph ()    
Max Wind Speed 18 mph    
Max Gust Speed -    
Visibility 4.2 miles    
Events Snow    
Averages and records for this station are not official NWS values.
T = Trace of Precipitation, MM = Missing Value Source: Averaged Metar Reports

Daily Weather History Graph

Daily Weather History Graph

Search for Another Location

Airport or City:

Trip Planner

Search our weather history database for the weather conditions in past years. The results will help you decide how hot, cold, wet, or windy it might be!

Date:

Astronomy

Mar. 25, 2013 Rise Set
Actual Time 5:35 AM CET 6:02 PM CET
Civil Twilight 5:05 AM CET 6:33 PM CET
Nautical Twilight 4:28 AM CET 7:10 PM CET
Astronomical Twilight 3:51 AM CET 7:47 PM CET
Moon 4:09 PM CET (3/25) 4:16 AM CET (3/25)
Length of Visible Light 13h 28m
Length of Day
12h 26m
Waxing Gibbous, 95% of the Moon is Illuminated
Mar 25
Waxing Gibbous
Mar 27
Full
Apr 3
Last Quarter
Apr 10
New
Apr 18
First Quarter

Hourly Weather History & Observations

Time (CET) Temp. Windchill Dew Point Humidity Pressure Visibility Wind Dir Wind Speed Gust Speed Precip Events Conditions
12:00 AM 28.4 °F 19.7 °F 8.6 °F 43% 30.09 in 6.2 mi ENE 9.2 mph - N/A   Mostly Cloudy
12:30 AM 28.4 °F 19.7 °F 6.8 °F 40% 30.06 in 6.2 mi ENE 9.2 mph - N/A   Mostly Cloudy
1:00 AM 28.4 °F 19.1 °F 5.0 °F 37% 30.06 in 6.2 mi ENE 10.4 mph - N/A   Mostly Cloudy
1:30 AM 28.4 °F 20.4 °F 5.0 °F 37% 30.06 in - ENE 8.1 mph - N/A   Clear
2:00 AM 28.4 °F 20.4 °F 6.8 °F 40% 30.04 in - NE 8.1 mph - N/A   Clear
2:30 AM 28.4 °F 20.4 °F 8.6 °F 43% 30.04 in 6.2 mi NE 8.1 mph - N/A   Mostly Cloudy
3:00 AM 28.4 °F 21.2 °F 6.8 °F 40% 30.04 in 6.2 mi NE 6.9 mph - N/A   Mostly Cloudy
3:30 AM 28.4 °F 20.4 °F 6.8 °F 40% 30.01 in - ENE 8.1 mph - N/A   Clear
4:00 AM 28.4 °F 19.7 °F 8.6 °F 43% 30.01 in - ENE 9.2 mph - N/A   Clear
4:30 AM 28.4 °F 19.7 °F 6.8 °F 40% 30.01 in 6.2 mi ENE 9.2 mph - N/A   Mostly Cloudy
5:00 AM 28.4 °F 19.7 °F 5.0 °F 37% 30.01 in 6.2 mi ENE 9.2 mph - N/A   Mostly Cloudy
5:30 AM 28.4 °F 18.5 °F 5.0 °F 37% 30.01 in 6.2 mi ENE 11.5 mph - N/A   Overcast
6:00 AM 28.4 °F 18.0 °F 5.0 °F 37% 30.01 in 6.2 mi ENE 12.7 mph - N/A   Mostly Cloudy
6:30 AM 28.4 °F 18.0 °F 5.0 °F 37% 30.01 in 6.2 mi ENE 12.7 mph - N/A   Mostly Cloudy
7:00 AM 28.4 °F 18.5 °F 5.0 °F 37% 30.01 in 6.2 mi NE 11.5 mph - N/A   Overcast
7:30 AM 28.4 °F 17.5 °F 8.6 °F 43% 30.01 in 6.2 mi NE 13.8 mph - N/A   Overcast
8:00 AM 30.2 °F 20.8 °F 8.6 °F 40% 30.01 in 6.2 mi NE 11.5 mph - N/A   Mostly Cloudy
8:30 AM 30.2 °F 20.8 °F 6.8 °F 37% 29.98 in 6.2 mi ENE 11.5 mph - N/A   Mostly Cloudy
9:00 AM 30.2 °F 19.8 °F 5.0 °F 34% 29.98 in 6.2 mi ENE 13.8 mph - N/A   Mostly Cloudy
9:30 AM 32.0 °F 23.0 °F 6.8 °F 35% 29.98 in 6.2 mi ENE 11.5 mph - N/A   Overcast
10:00 AM 32.0 °F 21.2 °F 6.8 °F 35% 29.95 in 6.2 mi ENE 16.1 mph - N/A   Overcast
10:30 AM 32.0 °F 22.5 °F 8.6 °F 38% 29.92 in 6.2 mi ENE 12.7 mph - N/A   Overcast
11:00 AM 32.0 °F 21.6 °F 8.6 °F 38% 29.92 in 6.2 mi ENE 15.0 mph - N/A   Overcast
11:30 AM 33.8 °F 23.9 °F 10.4 °F 38% 29.89 in 6.2 mi ENE 15.0 mph - N/A   Overcast
12:00 PM 33.8 °F 24.8 °F 10.4 °F 38% 29.89 in 6.2 mi ENE 12.7 mph - N/A   Overcast
12:30 PM 33.8 °F 25.3 °F 12.2 °F 41% 29.86 in 6.2 mi ENE 11.5 mph - N/A Snow Light Snow
1:00 PM 33.8 °F 25.8 °F 12.2 °F 41% 29.89 in 6.2 mi ENE 10.4 mph - N/A   Mostly Cloudy
1:30 PM 35.6 °F 26.6 °F 12.2 °F 38% 29.89 in 6.2 mi East 13.8 mph - N/A   Overcast
1:41 PM 35.6 °F 26.2 °F 14.0 °F 41% 29.86 in 6.2 mi East 15.0 mph - N/A   Overcast
2:00 PM 35.6 °F 27.1 °F 14.0 °F 41% 29.86 in 6.2 mi East 12.7 mph - N/A   Overcast
2:30 PM 33.8 °F 22.8 °F 15.8 °F 48% 29.86 in 3.7 mi East 18.4 mph - N/A Snow Light Snow
3:00 PM 32.0 °F 20.5 °F 21.2 °F 64% 29.83 in 3.1 mi East 18.4 mph - N/A Snow Light Snow
3:30 PM 30.2 °F 19.8 °F 24.8 °F 80% 29.83 in 1.1 mi ENE 13.8 mph - N/A Snow Snow
4:00 PM 30.2 °F 20.8 °F 26.6 °F 86% 29.80 in 1.1 mi ENE 11.5 mph - N/A Snow Snow
4:30 PM 30.2 °F 21.3 °F 28.4 °F 93% 29.80 in 1.2 mi ENE 10.4 mph - N/A Snow Snow
5:00 PM 30.2 °F 20.8 °F 28.4 °F 93% 29.80 in 1.2 mi NE 11.5 mph - N/A Snow Snow
5:30 PM 30.2 °F 21.9 °F 28.4 °F 93% 29.80 in 1.9 mi NE 9.2 mph - N/A Snow Light Snow
6:00 PM 30.2 °F 21.9 °F 28.4 °F 93% 29.77 in 1.9 mi ENE 9.2 mph - N/A Snow Light Snow
6:30 PM 30.2 °F 24.3 °F 28.4 °F 93% 29.77 in 1.6 mi ENE 5.8 mph - N/A Snow Light Snow
7:00 PM 28.4 °F 20.4 °F 28.4 °F 100% 29.77 in 1.4 mi NE 8.1 mph - N/A Snow Light Snow
7:30 PM 30.2 °F 21.9 °F 28.4 °F 93% 29.77 in 1.1 mi NE 9.2 mph - N/A Snow Light Snow
8:00 PM 28.4 °F 19.7 °F 28.4 °F 100% 29.77 in 1.2 mi NE 9.2 mph - N/A Snow Light Snow
8:30 PM 28.4 °F 19.1 °F 28.4 °F 100% 29.77 in 1.2 mi NE 10.4 mph - N/A Snow Light Snow
9:00 PM 28.4 °F 19.7 °F 28.4 °F 100% 29.74 in 1.2 mi North 9.2 mph - N/A Snow Light Snow
9:30 PM 28.4 °F 20.4 °F 28.4 °F 100% 29.74 in 1.1 mi North 8.1 mph - N/A Snow Light Snow
10:00 PM 28.4 °F 20.4 °F 28.4 °F 100% 29.74 in 1.1 mi North 8.1 mph - N/A Snow Light Snow
10:30 PM 28.4 °F 19.1 °F 28.4 °F 100% 29.74 in 1.1 mi North 10.4 mph - N/A Snow Light Snow
11:00 PM 28.4 °F 18.5 °F 28.4 °F 100% 29.71 in 1.1 mi North 11.5 mph - N/A Snow Light Snow
11:30 PM 28.4 °F 19.7 °F 26.6 °F 93% 29.71 in 0.5 mi North 9.2 mph - N/A Snow Snow